Weather Roundup
Issued by NWS Chicago, IL

Home | Current Version | Previous Version | Graphics & Text | Print | Product List | Glossary On
Versions: 1 2 3 4 5 6 7 8 9 10 11 12 13 14 15 16 17 18 19 20 21 22 23 24 25 26 27 28 29 30 31 32 33 34 35 36 37 38 39 40 41 42 43 44 45 46 47 48 49 50
000
NZUS59 KLOT 282303
HRRLOT

CHICAGO AREA WEATHER ROUNDUP
NATIONAL WEATHER SERVICE CHICAGO/ROMEOVILLE IL
600 PM CDT WED JUN 28 2017

NOTE: "FAIR" INDICATES FEW OR NO CLOUDS BELOW 12,000 FEET WITH NO
SIGNIFICANT WEATHER AND/OR OBSTRUCTIONS TO VISIBILITY.

* THESE STATIONS ARE NOT UNDER NWS QUALITY CONTROL. THEY ALSO MAY NOT
  REPORT WEATHER SUCH AS PRECIPITATION OR FOG.

ILZ005-006-012>014-019>023-290000-
NORTHEAST ILLINOIS

CITY           SKY/WX    TMP DP  RH WIND       PRES   REMARKS
OHARE          CLOUDY    78  61  55 S23G32    29.79F HX  80
MIDWAY         LGT RAIN  76  63  64 S15G29    29.78F
AURORA         CLOUDY    74  66  76 S17G28    29.79F
LANSING*       CLOUDY    79  57  47 S20G25    29.87S HX  80
JOLIET*        LGT RAIN  76  65  67 S13       29.81F
WAUKEGAN       CLOUDY    75  65  70 S16       29.76F
DUPAGE AIRPORT CLOUDY    76  65  68 S21G31    29.77F
WHEELING       CLOUDY    78  63  59 S21G35    29.79F HX  80
MORRIS*        CLOUDY    76  65  67 S16       29.79F
LEWIS AIRPORT* LGT RAIN  73  62  69 S17       29.79F
$$

WIZ051-052-058>065-066-070>072-290000-
SOUTHEAST WISCONSIN

CITY           SKY/WX    TMP DP  RH WIND       PRES   REMARKS
MILWAUKEE      TSTM      71  66  84 S13       29.76F
KENOSHA*       LGT RAIN  73  66  78 SW7       29.77F
RACINE*        LGT RAIN  72  65  78 S7        29.78F
WAUKESHA       LGT RAIN  66  64  94 S10       29.78F
$$

INZ001>003-010>013-019-020-290000-
NORTHWEST INDIANA

CITY           SKY/WX    TMP DP  RH WIND       PRES   REMARKS
GARY*          PTSUNNY   81  54  39 S14G25    29.87R HX  80
MICHIGAN CITY* NOT AVBL
RENSSELAER*    NOT AVBL
VALPARAISO     CLOUDY    80  58  46 S13G23    29.90S HX  80
$$

LMZ740>746-290000-
SOUTHERN LAKE MICHIGAN

STATION/POSITION TIME  SKY/WX   TEMP WIND        PRES    VSBY
                                AIR  DIR/SP/G
                 (UTC)          (F)  (DEG/KT/KT) (MB)    (MI)
HARRISON CRIB    2240            80  200/ 34/ 37   N/A
BURNHAM HARBOR   2300            77                N/A
CALUMET HARBOR   2230            80  180/ 11/ 16 1010.0F
BURNS HARBOR     2240            79  180/ 21/ 28 1011.5R
MICHIGAN CITY    2240            78  170/ 18/ 26   N/A
$$

ABBREVIATIONS USED IN REMARKS
   TC - TEMPERATURE IN CELSIUS
  WCI - WIND CHILL INDEX
   HX - HEAT INDEX
  VSB - VISIBILITY
$$




USA.gov is the U.S. government's official web portal to all federal, state and local government web resources and services.